• In Austria
  • List of Countries
  • For 7 days
  • Water Temperature
  • Satellite Maps
  • Weather Map
  • News
  • Weather Widgets
  • user-avatar
    Login

    Hourly Weather Elbasan

    Today, 18 December, Monday

    Time Temperature Precipitation Wind Pressure Humidity
    00:00 +5°C° 0.2 mm 2 mps 734 mmHg 89%
    01:00 +4°C° 0 mm 3 mps 734 mmHg 85%
    02:00 +4°C° 0.7 mm 3 mps 734 mmHg 86%
    03:00 +4°C° 0.7 mm 3 mps 735 mmHg 88%
    04:00 +4°C° 0.7 mm 3 mps 735 mmHg 89%
    05:00 +3°C° 0.4 mm 3 mps 735 mmHg 90%
    06:00 +4°C° 0.4 mm 2 mps 735 mmHg 91%
    07:00 +4°C° 0 mm 2 mps 735 mmHg 92%
    08:00 +5°C° 0.1 mm 2 mps 735 mmHg 89%
    09:00 +5°C° 0.1 mm 2 mps 735 mmHg 86%
    10:00 +6°C° 0.1 mm 2 mps 735 mmHg 83%
    11:00 +6°C° 0.1 mm 2 mps 735 mmHg 80%
    12:00 +6°C° 0.1 mm 2 mps 735 mmHg 78%
    13:00 +6°C° 0.1 mm 2 mps 735 mmHg 75%
    14:00 +6°C° 0.3 mm 2 mps 735 mmHg 78%
    15:00 +5°C° 0.3 mm 2 mps 735 mmHg 81%
    16:00 +4°C° 0.3 mm 2 mps 735 mmHg 84%
    17:00 +4°C° 0.3 mm 2 mps 735 mmHg 86%
    18:00 +3°C° 0.3 mm 2 mps 736 mmHg 87%
    19:00 +3°C° 0.3 mm 2 mps 736 mmHg 89%
    20:00 +4°C° 0.2 mm 1 mps 737 mmHg 89%
    21:00 +3°C° 0.2 mm 1 mps 737 mmHg 88%
    22:00 +3°C° 0.2 mm 1 mps 737 mmHg 88%
    23:00 +3°C° 0.1 mm 1 mps 738 mmHg 88%

    Tomorrow, 19 December, Tuesday

    Time Temperature Precipitation Wind Pressure Humidity
    00:00 +3°C° 0.1 mm 1 mps 738 mmHg 87%
    01:00 +2°C° 0.1 mm 1 mps 738 mmHg 87%
    02:00 +1°C° 0 mm 2 mps 739 mmHg 86%
    03:00 +1°C° 0 mm 2 mps 739 mmHg 85%
    04:00 +1°C° 0 mm 2 mps 740 mmHg 85%
    05:00 -1°C° 0 mm 2 mps 740 mmHg 84%
    06:00 -1°C° 0 mm 2 mps 740 mmHg 83%
    07:00 -2°C° 0 mm 2 mps 741 mmHg 82%
    08:00 +1°C° 0 mm 2 mps 741 mmHg 77%
    09:00 +2°C° 0 mm 2 mps 742 mmHg 73%
    10:00 +3°C° 0 mm 2 mps 742 mmHg 68%
    11:00 +4°C° 0 mm 2 mps 743 mmHg 66%
    12:00 +4°C° 0 mm 2 mps 743 mmHg 63%
    13:00 +4°C° 0 mm 2 mps 743 mmHg 61%
    14:00 +4°C° 0 mm 2 mps 743 mmHg 65%
    15:00 +3°C° 0 mm 2 mps 743 mmHg 68%
    16:00 +2°C° 0 mm 2 mps 743 mmHg 71%
    17:00 +2°C° 0 mm 2 mps 743 mmHg 73%
    18:00 +1°C° 0 mm 2 mps 743 mmHg 74%
    19:00 -1°C° 0 mm 2 mps 743 mmHg 75%
    20:00 -1°C° 0 mm 2 mps 744 mmHg 75%
    21:00 -2°C° 0 mm 2 mps 744 mmHg 76%
    22:00 -2°C° 0 mm 2 mps 744 mmHg 76%
    23:00 -2°C° 0 mm 2 mps 744 mmHg 76%

    Day after tomorrow, 20 December, Wednesday

    Time Temperature Precipitation Wind Pressure Humidity
    00:00 -2°C° 0 mm 2 mps 744 mmHg 76%
    01:00 -2°C° 0 mm 2 mps 744 mmHg 76%
    02:00 -2°C° 0 mm 2 mps 744 mmHg 76%
    03:00 -2°C° 0 mm 2 mps 744 mmHg 76%
    04:00 -3°C° 0 mm 2 mps 743 mmHg 76%
    05:00 -3°C° 0 mm 2 mps 743 mmHg 76%
    06:00 -3°C° 0 mm 2 mps 744 mmHg 75%
    07:00 -3°C° 0 mm 2 mps 744 mmHg 75%
    08:00 -1°C° 0 mm 2 mps 744 mmHg 70%
    09:00 +1°C° 0 mm 2 mps 744 mmHg 66%
    10:00 +2°C° 0 mm 2 mps 744 mmHg 61%
    11:00 +3°C° 0 mm 2 mps 743 mmHg 59%
    12:00 +4°C° 0 mm 2 mps 743 mmHg 56%
    13:00 +5°C° 0 mm 2 mps 743 mmHg 54%
    14:00 +4°C° 0 mm 2 mps 743 mmHg 58%
    15:00 +3°C° 0 mm 2 mps 742 mmHg 62%
    16:00 +2°C° 0 mm 2 mps 742 mmHg 66%
    17:00 +1°C° 0 mm 2 mps 743 mmHg 67%
    18:00 -1°C° 0 mm 2 mps 743 mmHg 69%
    19:00 -1°C° 0 mm 2 mps 743 mmHg 70%
    20:00 -2°C° 0 mm 2 mps 743 mmHg 70%
    21:00 -2°C° 0 mm 2 mps 743 mmHg 70%
    22:00 -2°C° 0 mm 2 mps 744 mmHg 70%
    23:00 -2°C° 0 mm 2 mps 743 mmHg 70%

    21 December, Thursday

    Time Temperature Precipitation Wind Pressure Humidity
    00:00 -2°C° 0 mm 2 mps 743 mmHg 70%
    01:00 -2°C° 0 mm 2 mps 743 mmHg 70%
    02:00 -2°C° 0 mm 2 mps 743 mmHg 70%
    03:00 -2°C° 0 mm 2 mps 743 mmHg 70%
    04:00 -3°C° 0 mm 2 mps 743 mmHg 70%
    05:00 -3°C° 0 mm 2 mps 743 mmHg 70%
    06:00 -3°C° 0 mm 2 mps 743 mmHg 70%
    07:00 -3°C° 0 mm 2 mps 744 mmHg 70%
    08:00 -1°C° 0 mm 2 mps 744 mmHg 67%
    09:00 +1°C° 0 mm 2 mps 744 mmHg 64%
    10:00 +3°C° 0 mm 2 mps 744 mmHg 61%
    11:00 +4°C° 0 mm 2 mps 743 mmHg 59%
    12:00 +4°C° 0 mm 2 mps 743 mmHg 57%
    13:00 +5°C° 0 mm 2 mps 743 mmHg 56%
    14:00 +4°C° 0 mm 2 mps 743 mmHg 60%
    15:00 +3°C° 0 mm 2 mps 743 mmHg 65%
    16:00 +2°C° 0 mm 2 mps 743 mmHg 70%
    17:00 +1°C° 0 mm 2 mps 743 mmHg 72%
    18:00 +1°C° 0 mm 2 mps 743 mmHg 73%
    19:00 -1°C° 0 mm 2 mps 744 mmHg 75%
    20:00 -1°C° 0 mm 2 mps 744 mmHg 75%
    21:00 -2°C° 0 mm 2 mps 744 mmHg 74%
    22:00 -2°C° 0 mm 2 mps 744 mmHg 74%
    23:00 -2°C° 0 mm 2 mps 744 mmHg 73%

    22 December, Friday

    Time Temperature Precipitation Wind Pressure Humidity
    00:00 -2°C° 0 mm 2 mps 744 mmHg 72%
    01:00 -2°C° 0 mm 2 mps 743 mmHg 71%
    02:00 -2°C° 0 mm 2 mps 743 mmHg 68%
    03:00 -2°C° 0 mm 2 mps 743 mmHg 66%
    04:00 -2°C° 0 mm 2 mps 742 mmHg 64%
    05:00 -2°C° 0 mm 2 mps 743 mmHg 62%
    06:00 -2°C° 0 mm 2 mps 743 mmHg 60%
    07:00 -1°C° 0 mm 2 mps 743 mmHg 58%
    08:00 +2°C° 0 mm 2 mps 743 mmHg 54%
    09:00 +3°C° 0 mm 2 mps 743 mmHg 51%
    10:00 +5°C° 0 mm 2 mps 742 mmHg 47%
    11:00 +6°C° 0 mm 2 mps 742 mmHg 47%
    12:00 +7°C° 0 mm 3 mps 741 mmHg 48%
    13:00 +8°C° 0 mm 3 mps 741 mmHg 48%
    14:00 +7°C° 0 mm 3 mps 740 mmHg 53%
    15:00 +5°C° 0 mm 3 mps 740 mmHg 58%
    16:00 +4°C° 0 mm 3 mps 740 mmHg 63%
    17:00 +3°C° 0 mm 3 mps 740 mmHg 64%
    18:00 +2°C° 0 mm 3 mps 740 mmHg 65%
    19:00 +1°C° 0 mm 3 mps 741 mmHg 66%
    20:00 +1°C° 0 mm 3 mps 741 mmHg 66%
    21:00 +1°C° 0 mm 3 mps 741 mmHg 67%
    22:00 +1°C° 0 mm 3 mps 740 mmHg 67%
    23:00 +1°C° 0 mm 3 mps 740 mmHg 67%

    23 December, Saturday

    Time Temperature Precipitation Wind Pressure Humidity
    00:00 +1°C° 0 mm 3 mps 740 mmHg 67%
    01:00 +1°C° 0 mm 3 mps 739 mmHg 67%
    02:00 +1°C° 0 mm 3 mps 739 mmHg 68%
    03:00 +1°C° 0 mm 3 mps 739 mmHg 68%
    04:00 0°C° 0 mm 3 mps 738 mmHg 68%
    05:00 0°C° 0 mm 3 mps 738 mmHg 68%
    06:00 0°C° 0 mm 3 mps 738 mmHg 68%
    07:00 0°C° 0 mm 3 mps 738 mmHg 68%
    08:00 +2°C° 0 mm 3 mps 738 mmHg 65%
    09:00 +3°C° 0 mm 3 mps 738 mmHg 62%
    10:00 +4°C° 0 mm 3 mps 739 mmHg 59%
    11:00 +5°C° 0 mm 3 mps 738 mmHg 57%
    12:00 +5°C° 0 mm 3 mps 738 mmHg 55%
    13:00 +7°C° 0 mm 3 mps 737 mmHg 54%
    14:00 +4°C° 0 mm 3 mps 737 mmHg 59%
    15:00 +3°C° 0 mm 3 mps 737 mmHg 63%
    16:00 +2°C° 0 mm 3 mps 738 mmHg 68%
    17:00 +2°C° 0 mm 3 mps 738 mmHg 70%
    18:00 +2°C° 0 mm 2 mps 738 mmHg 71%
    19:00 +1°C° 0 mm 2 mps 739 mmHg 72%
    20:00 +1°C° 0 mm 2 mps 739 mmHg 71%
    21:00 +1°C° 0 mm 2 mps 739 mmHg 71%
    22:00 +1°C° 0 mm 2 mps 739 mmHg 70%
    23:00 -1°C° 0 mm 2 mps 739 mmHg 70%
    Show more